Weather in Baqubah

Iraq     33°44′32″N   44°38′42″E
temp.,
°C
wind,
m/s
gust,
m/s
humid.,
%
clouds,
%
prec.,
mm/h
press.,
hPa
HPBL,
m
21 april, wed
wed2100:00+31ne441686 0.0 100821
03:00+30e3318100 0.0 100811
06:00+29w2221100 0.0 100911
09:00+35sse2214100 0.0 1010262
12:00+39sw231061 0.0 10101744
15:00+41wsw34950 0.0 10084414
18:00+38wnw221291 0.0 100713
21:00+34s33131 0.0 100812
22 april, thu
thu2200:00+31sw451551 0.0 100951
03:00+29n451879 0.0 100850
06:00+28e23187 0.0 100913
09:00+35sw341295 0.0 1010527
12:00+39w3311100 0.0 10101342
15:00+39nw541186 0.0 10082129
18:00+36nw691399 0.0 1009305
21:00+33nne5616100 0.0 100875
23 april, fri
fri2300:00+30nw5622100 0.0 100973
03:00+27nw71223100 0.0 1009224
06:00+26nnw61224100 0.0 1011253
09:00+32nnw891795 0.0 1011527
12:00+37nnw8810100 0.0 10101437
15:00+38nnw8886 0.0 10092016
18:00+35nw7109100 0.0 1010335
21:00+32nnw48992 0.0 1010166
24 april, sat
sat2400:00+28nne5610100 0.0 101089
03:00+26nnw4411100 0.0 100938
06:00+26nnw451299 0.0 101069
09:00+32nnw679100 0.0 1011522
12:00+37nnw66694 0.0 10101483
15:00+37nw7761 0.0 10082169
18:00+35nnw478100 0.0 1009104
21:00+30nw458100 0.0 101048
25 april, sun
sun2500:00+28n451061 0.0 100947
03:00+25n45145 0.0 100942
06:00+25nne571510 0.0 101073
09:00+34nne57100 0.0 1010637
12:00+38n376100 0.0 10092191
15:00+39n676100 0.0 10061969
18:00+36ne44987 0.0 100645
21:00+32ene3383 0.0 100712